Wind_Speed
9 8 8 8 8 7 5 4 3 2 1 2 3 4 5 6 7 7 7 3 4 6 7 2 2 3 7 3 4 3 4 1 3 5 2 5 7 14 5 11 11 11 4 5 10
11 10 9 8 8 7 6 5 3 2 2 3 3 4 4 5 4 5 6 2 2 2 3 3 1 3 5 5 5 4 4 8 3 1 2 7 2 2 10 1 6 19 14 16 18
14 12 11 11 10 9 8 7 6 4 4 4 3 4 5 7 4 5 6 4 2 3 1 3 2 3 4 4 4 4 6 5 5 3 4 1 7 7 7 4 9 17 15 17 21
17 17 16 15 15 14 12 10 8 7 6 5 4 5 7 4 2 7 6 2 4 3 1 2 3 3 3 2 4 3 6 7 2 3 6 3 4 11 14 7 6 5 9 15 21
17 17 16 16 15 14 13 12 10 7 5 5 4 7 8 3 4 6 11 11 2 3 4 2 4 4 2 2 2 4 4 8 10 10 15 9 4 9 21 32 17 17 6 13 14
14 14 14 13 13 13 12 11 9 7 5 4 5 8 6 2 2 3 5 7 7 6 1 8 3 3 1 2 3 6 5 6 8 10 11 6 10 10 15 35 17 22 21 7 4
12 11 11 12 12 12 12 11 9 6 4 5 7 12 4 1 3 4 5 7 8 6 4 5 4 3 3 2 4 4 3 3 2 3 4 6 1 8 22 25 25 14 27 21 34
11 10 10 10 11 12 13 13 11 5 4 6 10 13 5 3 5 1 3 6 7 6 0 1 4 4 2 3 5 4 5 3 5 2 4 8 8 10 31 12 6 27 23 17 17
13 10 9 10 10 12 14 16 7 4 6 8 11 8 4 7 4 1 2 4 6 4 3 1 1 1 1 4 5 6 1 1 6 3 2 0 8 9 21 28 19 13 16 11 9
17 12 10 10 10 11 13 13 10 5 5 10 4 4 1 11 7 4 1 2 1 2 4 2 2 3 4 5 2 3 2 2 2 3 4 3 10 9 15 12 25 22 20 21 22
22 15 11 9 9 9 11 10 9 3 16 9 11 10 13 7 6 2 2 1 1 1 2 4 4 5 6 4 3 1 1 3 4 7 3 3 8 12 26 12 14 23 24 27 24
24 19 12 9 7 6 7 6 9 7 8 13 9 12 12 9 4 3 4 2 1 1 1 5 4 6 2 4 5 4 3 5 6 2 3 7 9 12 27 17 20 22 25 27 25
26 21 14 8 4 3 3 8 11 10 2 8 3 5 4 4 3 1 4 2 1 1 2 5 5 2 5 4 4 3 5 4 5 4 3 2 5 16 13 28 29 30 28 31 31
27 22 17 8 2 1 3 8 9 7 4 5 2 2 5 1 3 2 3 1 2 2 4 3 5 3 5 4 4 2 3 2 3 3 2 3 4 13 10 16 23 25 30 31 32
29 23 18 7 5 1 2 5 5 4 3 2 2 0 3 5 1 4 1 1 1 3 4 3 7 5 6 3 1 2 3 4 3 4 3 10 6 7 7 13 14 20 26 31 30
29 26 17 8 8 5 2 3 3 5 3 3 2 1 2 0 1 3 3 3 4 4 5 2 4 3 1 2 4 2 5 7 5 3 4 5 5 9 5 5 10 19 24 28 29
31 25 15 7 4 5 2 2 4 3 4 4 2 2 2 1 4 4 4 7 3 4 6 7 5 6 4 3 6 7 6 3 3 4 3 2 7 2 6 11 12 14 20 25 24
30 23 13 5 10 3 1 4 2 3 4 3 3 3 3 3 3 3 3 4 5 4 3 3 6 6 8 2 1 4 4 5 3 3 3 6 3 1 5 13 14 17 18 22 22
29 17 3 3 9 6 5 3 6 5 3 4 2 4 5 3 5 5 3 2 1 2 5 2 3 5 4 3 2 1 4 3 6 3 4 4 3 3 4 8 12 15 18 17 18
27 11 4 9 8 3 4 4 4 4 3 2 3 1 2 5 4 4 1 1 1 5 1 3 2 2 5 4 7 4 3 3 4 3 2 1 4 4 4 3 6 14 15 14 16
17 4 7 8 6 2 3 6 5 7 4 2 2 3 2 3 3 2 1 1 3 3 7 3 3 6 3 5 2 4 3 6 5 4 5 4 5 5 7 4 3 10 13 13 17
14 3 8 8 3 2 2 4 4 4 3 3 4 3 3 2 3 2 3 1 3 2 3 2 4 1 1 3 3 3 3 3 5 2 1 3 4 5 7 5 4 10 13 12 17
17 6 7 6 2 3 6 5 4 3 4 2 3 4 5 3 4 3 3 4 2 4 4 4 3 3 7 6 5 5 4 4 4 3 3 4 3 4 6 1 4 12 18 16 21
8 4 5 7 6 2 4 4 2 6 5 7 4 5 4 4 5 3 2 5 5 6 7 4 3 5 6 4 2 3 4 3 4 3 2 4 5 4 3 3 9 16 20 20 24
7 2 3 4 3 3 2 3 2 2 4 8 4 4 4 3 3 2 2 2 5 3 3 4 3 2 3 3 1 2 2 3 2 2 3 0 3 5 4 3 10 13 15 19 25
6 5 5 4 9 5 0 2 2 3 2 2 6 1 3 5 5 7 4 2 2 4 3 3 2 1 2 2 5 2 3 6 5 3 5 4 1 3 3 5 10 14 14 21 26
7 5 4 4 4 2 2 5 1 1 7 5 9 4 5 4 5 5 3 6 5 6 3 3 5 3 3 3 2 3 2 2 2 1 4 3 3 5 4 6 12 12 12 17 24
Wind_Direction
24 16 9 4 359 351 342 334 329 312 303 310 323 323 328 320 308 304 319 295 289 224 245 232 203 209 200 167 163 134 66 199 230 169 134 320 35 66 113 153 174 168 74 140 286
29 23 18 15 15 14 13 13 12 17 11 357 358 354 347 339 345 56 31 5 214 205 199 197 173 167 153 163 173 112 122 214 228 199 33 346 91 117 102 162 241 215 246 231 234
33 33 30 28 29 31 34 39 45 47 40 43 35 22 17 6 65 17 350 334 225 218 97 155 123 132 130 166 172 154 175 200 259 152 19 30 294 347 114 169 188 205 223 209 212
43 45 45 45 45 45 46 47 52 58 64 62 53 35 9 34 78 7 7 328 215 235 188 104 94 104 103 175 183 144 222 172 256 184 174 205 134 324 307 282 348 240 226 194 208
40 42 44 43 42 42 42 42 42 43 51 63 50 18 10 8 50 46 48 52 45 249 241 160 145 147 158 196 154 181 243 199 241 247 256 193 87 191 207 263 290 293 257 228 222
27 30 33 34 32 30 29 28 26 26 38 47 17 358 355 343 10 3 16 25 32 32 169 182 184 149 321 239 192 217 227 236 257 244 245 226 190 178 221 200 232 264 292 190 216
10 13 15 15 13 12 10 9 8 14 25 12 354 343 314 110 292 317 347 345 344 343 33 145 200 292 338 292 302 298 312 327 240 3 258 219 109 174 248 177 181 253 293 264 267
351 349 351 354 355 355 356 354 347 347 347 341 337 335 290 304 321 249 348 11 8 347 266 41 247 277 208 319 357 32 44 36 317 17 332 152 255 233 205 190 351 238 220 261 234
355 333 328 330 336 341 343 345 349 331 328 332 323 326 311 348 13 290 350 355 351 41 92 268 5 131 74 74 15 9 231 54 338 273 32 345 257 265 254 225 175 168 195 202 134
359 344 318 312 319 330 340 353 352 324 318 325 326 329 320 338 343 304 299 1 24 76 103 132 111 72 39 66 230 243 20 332 249 298 101 239 266 339 350 171 162 171 140 120 106
0 349 332 306 304 318 341 8 354 346 315 277 281 283 296 327 324 279 202 242 179 66 65 21 50 226 229 201 157 113 246 258 240 264 193 286 21 8 7 72 123 112 100 95 92
356 353 335 318 294 293 354 50 16 321 310 302 273 268 285 293 294 296 203 206 104 171 96 19 257 241 251 172 165 163 196 257 281 285 128 95 33 18 26 20 76 74 76 84 84
353 350 341 321 298 243 7 9 351 341 269 298 277 273 287 248 248 339 177 209 155 123 197 166 247 292 194 169 158 211 187 211 197 354 70 134 71 28 16 41 62 75 83 84 83
352 345 341 316 249 214 115 354 342 338 56 282 272 266 213 209 302 192 191 304 39 351 126 209 304 50 79 60 131 94 199 137 57 82 204 348 162 43 23 44 52 56 67 72 82
350 342 338 300 237 248 332 356 356 345 24 255 237 239 182 170 317 28 153 236 54 357 77 295 5 33 54 339 29 106 57 40 58 91 74 346 72 335 38 43 39 44 57 67 78
344 340 334 300 249 211 276 331 341 45 261 324 211 139 108 312 13 97 58 49 50 73 22 336 316 43 274 102 42 76 71 43 48 72 44 314 105 20 30 47 67 59 60 68 77
337 338 326 287 203 168 209 287 48 137 318 310 266 157 137 263 39 48 46 27 43 44 3 342 351 328 30 47 13 61 53 349 345 18 205 264 61 7 45 53 58 68 65 65 64
335 334 316 251 202 214 138 59 181 242 250 296 10 103 148 147 51 37 75 38 14 67 67 54 336 2 334 53 158 63 125 146 235 180 203 26 88 157 73 71 58 55 59 56 49
339 340 13 144 173 176 174 93 209 215 277 315 76 75 23 20 115 86 62 117 343 30 120 83 282 325 16 342 65 164 56 165 106 15 77 136 92 141 89 49 38 35 41 37 29
345 350 80 134 143 159 86 234 235 219 315 45 109 87 88 357 80 80 75 315 186 43 141 191 358 344 300 13 35 94 135 46 13 138 152 86 176 201 152 31 9 17 18 14 6
356 27 0 163 155 136 160 234 276 268 255 135 155 100 103 105 79 79 133 359 350 49 72 93 102 291 24 23 299 345 27 50 107 111 158 160 252 177 152 149 28 9 6 358 351
356 21 13 172 61 37 179 209 290 266 82 73 93 99 99 67 85 107 138 45 8 75 63 31 124 288 142 305 287 74 102 99 112 216 100 153 262 115 130 133 32 2 352 345 344
343 314 13 182 109 321 303 287 241 308 35 76 84 57 50 82 94 71 91 9 59 76 134 173 23 26 355 354 4 41 3 102 93 72 198 132 250 163 132 167 329 344 347 340 341
352 355 352 61 74 82 351 285 258 49 64 64 77 83 79 65 29 115 92 16 46 83 82 102 94 147 188 211 191 340 349 19 104 98 201 228 150 192 202 278 327 340 340 337 340
3 30 19 322 339 354 293 284 297 35 63 43 53 59 131 112 69 98 110 110 43 29 51 92 112 177 208 259 46 87 295 325 107 78 150 240 120 195 226 307 327 322 321 332 343
6 5 339 280 308 318 44 258 183 159 52 19 111 89 99 148 175 187 142 166 183 30 65 17 163 177 229 43 21 81 81 87 72 105 92 123 153 193 230 281 312 326 332 340 343
358 340 319 304 339 5 308 298 1 69 48 96 135 100 77 163 119 99 98 124 146 144 118 87 130 93 254 28 30 350 264 84 117 207 148 182 181 190 232 305 319 324 340 344 338
Height
1506 1505 1504 1502 1501 1499 1498 1497 1497 1497 1498 1498 1498 1498 1498 1497 1497 1496 1497 1498 1498 1498 1500 1502 1503 1504 1506 1508 1509 1510 1524 1531 1521 1520 1516 1510 1507 1508 1509 1510 1511 1508 1506 1507 1507
1507 1506 1505 1503 1501 1500 1499 1498 1498 1497 1497 1498 1498 1498 1497 1497 1496 1496 1498 1497 1497 1498 1499 1501 1502 1503 1505 1507 1509 1510 1526 1523 1512 1512 1512 1510 1508 1513 1512 1517 1516 1516 1518 1512 1510
1509 1507 1506 1504 1502 1500 1499 1499 1499 1498 1498 1499 1498 1498 1497 1496 1496 1497 1497 1497 1497 1498 1500 1501 1501 1503 1504 1506 1508 1510 1518 1512 1509 1512 1514 1514 1510 1506 1513 1518 1516 1514 1514 1513 1512
1512 1509 1508 1506 1504 1503 1501 1501 1500 1500 1500 1499 1499 1499 1498 1498 1503 1498 1496 1496 1497 1498 1500 1500 1502 1503 1505 1507 1506 1510 1508 1509 1509 1510 1511 1512 1512 1512 1509 1511 1516 1514 1513 1512 1512
1515 1513 1511 1509 1508 1506 1505 1503 1502 1502 1501 1501 1500 1500 1499 1499 1499 1499 1498 1497 1498 1498 1499 1501 1502 1503 1505 1506 1506 1507 1505 1506 1506 1506 1505 1508 1513 1513 1512 1505 1510 1513 1512 1515 1513
1518 1516 1514 1512 1510 1509 1507 1505 1504 1503 1502 1502 1501 1501 1500 1500 1499 1499 1499 1499 1499 1499 1499 1500 1502 1503 1504 1505 1506 1503 1503 1503 1503 1503 1504 1504 1506 1516 1509 1510 1518 1513 1515 1513 1513
1520 1518 1516 1514 1512 1510 1508 1507 1505 1504 1503 1503 1502 1500 1499 1500 1499 1499 1499 1499 1499 1499 1500 1501 1502 1504 1504 1504 1504 1503 1504 1501 1500 1502 1501 1502 1506 1504 1504 1505 1508 1516 1514 1510 1512
1520 1518 1517 1515 1513 1511 1509 1507 1506 1505 1504 1503 1502 1500 1497 1498 1499 1499 1499 1499 1499 1498 1500 1502 1502 1503 1504 1504 1504 1506 1508 1516 1504 1502 1501 1502 1517 1498 1497 1504 1509 1509 1508 1509 1508
1520 1518 1516 1515 1513 1512 1509 1507 1505 1504 1504 1503 1502 1502 1498 1498 1499 1499 1499 1499 1499 1499 1499 1501 1502 1502 1504 1509 1518 1517 1522 1515 1510 1502 1503 1505 1507 1497 1497 1496 1501 1507 1509 1509 1508
1519 1517 1515 1513 1512 1511 1509 1506 1505 1504 1504 1502 1502 1503 1498 1499 1498 1498 1498 1499 1499 1499 1500 1501 1501 1505 1510 1515 1534 1523 1519 1516 1517 1506 1506 1512 1508 1503 1496 1495 1496 1499 1506 1509 1511
1519 1516 1513 1512 1511 1511 1510 1507 1508 1506 1503 1502 1501 1501 1498 1498 1498 1498 1498 1499 1499 1499 1503 1501 1508 1514 1508 1508 1509 1511 1515 1517 1511 1504 1503 1506 1514 1512 1500 1499 1503 1502 1510 1511 1516
1519 1515 1512 1510 1510 1510 1510 1509 1510 1511 1504 1498 1498 1497 1497 1498 1498 1497 1498 1499 1498 1502 1501 1508 1512 1501 1501 1504 1507 1512 1515 1518 1508 1502 1502 1511 1524 1515 1511 1513 1514 1516 1517 1518 1521
1518 1514 1511 1509 1509 1509 1510 1510 1509 1507 1506 1497 1496 1496 1497 1497 1497 1496 1498 1497 1498 1501 1503 1509 1502 1498 1500 1503 1506 1509 1514 1511 1510 1504 1505 1510 1523 1525 1525 1523 1522 1525 1527 1525 1528
1517 1513 1510 1508 1510 1508 1509 1509 1508 1507 1516 1503 1496 1496 1496 1496 1497 1496 1497 1499 1498 1501 1502 1504 1498 1498 1500 1503 1505 1509 1502 1502 1503 1513 1524 1512 1539 1537 1539 1536 1533 1536 1533 1533 1534
1516 1511 1509 1507 1507 1508 1510 1508 1508 1507 1536 1499 1495 1495 1494 1497 1497 1497 1497 1497 1499 1500 1502 1505 1501 1501 1504 1503 1500 1505 1501 1506 1508 1519 1522 1526 1540 1549 1541 1545 1545 1543 1540 1539 1539
1514 1509 1506 1505 1505 1508 1508 1508 1508 1522 1531 1499 1493 1494 1496 1496 1497 1497 1498 1499 1500 1501 1503 1504 1500 1500 1501 1502 1502 1502 1507 1517 1524 1531 1549 1536 1544 1555 1554 1551 1553 1549 1546 1545 1545
1510 1507 1503 1502 1504 1506 1507 1508 1524 1531 1501 1501 1496 1494 1496 1499 1500 1500 1506 1510 1515 1516 1522 1511 1507 1502 1501 1504 1503 1507 1522 1545 1542 1551 1552 1537 1547 1568 1560 1557 1557 1553 1551 1550 1547
1506 1503 1500 1500 1502 1504 1506 1511 1525 1508 1504 1494 1495 1495 1500 1500 1504 1506 1510 1518 1513 1515 1528 1529 1529 1511 1505 1507 1511 1516 1523 1546 1540 1555 1550 1539 1556 1568 1563 1560 1559 1557 1555 1552 1549
1503 1500 1498 1498 1501 1504 1506 1524 1517 1506 1497 1497 1497 1502 1506 1501 1504 1509 1516 1519 1517 1515 1526 1530 1523 1511 1508 1507 1509 1514 1529 1524 1545 1550 1552 1558 1564 1562 1562 1561 1559 1558 1555 1553 1551
1500 1498 1499 1499 1501 1504 1508 1516 1506 1498 1495 1495 1504 1503 1510 1509 1509 1513 1516 1517 1516 1515 1515 1523 1531 1516 1512 1509 1510 1512 1520 1533 1544 1550 1553 1552 1556 1557 1559 1561 1559 1557 1555 1553 1551
1501 1499 1500 1501 1502 1504 1515 1512 1502 1495 1495 1497 1500 1504 1507 1508 1511 1517 1519 1517 1515 1516 1515 1521 1529 1525 1518 1525 1526 1525 1527 1537 1543 1552 1559 1563 1555 1550 1556 1559 1560 1558 1556 1554 1551
1504 1503 1501 1501 1505 1509 1511 1505 1499 1494 1494 1495 1497 1500 1505 1507 1513 1516 1518 1517 1515 1515 1522 1525 1535 1539 1529 1524 1524 1524 1530 1538 1555 1543 1560 1559 1556 1552 1555 1558 1558 1557 1556 1553 1551
1508 1505 1502 1502 1511 1512 1506 1502 1498 1495 1496 1496 1500 1501 1504 1511 1518 1516 1517 1518 1515 1517 1522 1524 1542 1552 1546 1533 1527 1532 1531 1538 1545 1552 1551 1561 1554 1556 1556 1557 1557 1555 1553 1551 1548
1513 1512 1505 1503 1507 1509 1509 1504 1499 1497 1499 1499 1502 1502 1507 1514 1517 1519 1519 1520 1518 1519 1521 1523 1542 1545 1556 1541 1539 1536 1535 1534 1540 1565 1547 1549 1556 1558 1557 1556 1555 1553 1550 1548 1546
1516 1518 1518 1518 1510 1511 1511 1506 1501 1501 1500 1500 1505 1507 1509 1517 1519 1521 1520 1521 1521 1522 1523 1526 1540 1538 1538 1536 1534 1538 1538 1536 1536 1543 1549 1551 1552 1554 1554 1553 1553 1552 1549 1547 1543
1520 1520 1518 1515 1513 1511 1508 1503 1502 1503 1502 1504 1507 1509 1510 1515 1516 1522 1519 1521 1521 1524 1526 1530 1543 1537 1538 1536 1539 1542 1541 1541 1543 1548 1550 1552 1553 1551 1552 1553 1552 1550 1547 1544 1540
1521 1520 1520 1515 1512 1512 1510 1505 1502 1503 1505 1504 1506 1510 1513 1515 1515 1516 1518 1519 1520 1523 1530 1534 1543 1551 1543 1543 1542 1553 1542 1543 1547 1547 1547 1549 1548 1550 1551 1551 1550 1549 1548 1545 1541